Tracking 20724 objects as of 2-Jun-2020
HD Live streaming from Space Station
objects crossing your sky now

STARLINK-1299

Track STARLINK-1299 now!
10-day predictions
STARLINK-1299 is classified as:


NORAD ID: 45418
Int'l Code: 2020-019BL
Perigee: 575.9 km
Apogee: 577.7 km
Inclination: 53.0 °
Period: 96.1 minutes
Semi major axis: 6947 km
RCS: Unknown
Launch date: March 18, 2020
Source: United States (US)
Launch site: AIR FORCE EASTERN TEST RANGE (AFETR)
aabbcc
Your satellite tracking list
Your tracking list is empty




NASA's NSSDC Master Catalog

Two Line Element Set (TLE):
1 45418U 20019BL  20153.91667824 -.00041684  00000-0 -33951-2 0  9996
2 45418  53.0016 261.7448 0001289  95.4779 274.5188 14.99097381 11987
Source of the keplerian elements: AFSPC